This is the latest recevied weather packets stored in our database for station/object KO4DYK. If no packets are shown the sender has not sent any weather packets the latest 10 day(s).
| Time | Temp. | Humidity | Pressure | Rain* | Wind** | Luminosity | Snow |
|---|---|---|---|---|---|---|---|
| 1778169738 | 17.22° C | 69% | 1021.8 hPa | 0 mm | - | 741 W/m² | - |
| 1778169434 | 16.67° C | 67% | 1021.9 hPa | 0 mm | - | 702 W/m² | - |
| 1778169130 | 17.22° C | 67% | 1021.9 hPa | 0 mm | - | 661 W/m² | - |
| 1778168826 | 16.67° C | 68% | 1022.1 hPa | 0 mm | - | 684 W/m² | - |
| 1778168525 | 16.11° C | 69% | 1022.2 hPa | 0 mm | - | 734 W/m² | - |
| 1778168221 | 16.67° C | 73% | 1022.1 hPa | 0 mm | - | 727 W/m² | - |
| 1778167917 | 16.11° C | 78% | 1022.2 hPa | 0 mm | - | 676 W/m² | - |
| 1778167614 | 15.56° C | 75% | 1022 hPa | 0 mm | - | 729 W/m² | - |
| 1778167310 | 15.56° C | 74% | 1022.2 hPa | 0 mm | - | 764 W/m² | - |
| 1778167006 | 15° C | 75% | 1022.4 hPa | 0 mm | - | 759 W/m² | - |
| 1778166703 | 15° C | 80% | 1022.5 hPa | 0 mm | - | 714 W/m² | - |
| 1778166400 | 15° C | 78% | 1022.4 hPa | 0 mm | - | 733 W/m² | - |
| 1778166096 | 14.44° C | 80% | 1022.2 hPa | 0 mm | - | 691 W/m² | - |
| 1778165792 | 14.44° C | 84% | 1022 hPa | 0 mm | - | 603 W/m² | - |
| 1778165490 | 14.44° C | 83% | 1022.2 hPa | 0 mm | - | 613 W/m² | - |
| 1778165186 | 14.44° C | 85% | 1022 hPa | 0 mm | - | 647 W/m² | - |
| 1778164884 | 13.89° C | 86% | 1022.1 hPa | 0 mm | - | 557 W/m² | - |
| 1778164580 | 13.89° C | 88% | 1022.3 hPa | 0 mm | - | 540 W/m² | - |
| 1778164278 | 13.89° C | 91% | 1022.3 hPa | 0 mm | - | 561 W/m² | - |
| 1778163973 | 13.89° C | 93% | 1022.3 hPa | 0 mm | - | 487 W/m² | - |
| 1778163670 | 13.33° C | 93% | 1022.2 hPa | 0 mm | - | 538 W/m² | - |
| 1778163367 | 13.33° C | 95% | 1022.2 hPa | 0 mm | - | 527 W/m² | - |
| 1778163063 | 13.33° C | 96% | 1021.8 hPa | 0 mm | - | 515 W/m² | - |
| 1778162760 | 12.78° C | 98% | 1021.8 hPa | 0 mm | - | 461 W/m² | - |
| 1778162457 | 13.33° C | 97% | 1021.9 hPa | 0 mm | - | 444 W/m² | - |
* Rain latest hour (hover to see other rain measurements)
** Current wind speed in m/s (hover to see current wind gust speed)